Morgantown, WV

8:41 PM EST on January 20, 2017 (GMT -0500)
Morgantown Municipal-Hart

Weather History for KMGW - February, 2004

Change the Weather History Date:

Saturday, February 7, 2004

  Actual Average Record
Temperature  
Mean Temperature 30 °F 33 °F  
Max Temperature 37 °F 41 °F 62 °F (2005)
Min Temperature 24 °F 25 °F -1 °F (1972)
Degree Days  
Heating Degree Days 34 32  
Month to date heating degree days 228  
Since 1 July heating degree days 3255  
Cooling Degree Days 0 0  
Month to date cooling degree days 0  
Year to date cooling degree days 0  
Moisture  
Dew Point 25 °F    
Average Humidity 85    
Maximum Humidity 100    
Minimum Humidity 69    
Precipitation  
Precipitation 0.04 in 0.09 in 0.79 in (1999)
Month to date precipitation 0.63  
Year to date precipitation 3.44  
Sea Level Pressure  
Sea Level Pressure 29.90 in    
Wind  
Wind Speed 7 mph (West)    
Max Wind Speed 10 mph    
Max Gust Speed 21 mph    
Visibility 5 miles    
Events Rain , Snow    
T = Trace of Precipitation, MM = Missing Value Source: NWS Daily Summary

Daily Weather History Graph

Daily Weather History Graph

Search for Another Location

Airport or City:

Trip Planner

Search our weather history database for the weather conditions in past years. The results will help you decide how hot, cold, wet, or windy it might be!

Date:

Astronomy

Feb. 07, 2004 Rise Set
Actual Time 7:22 AM EST 5:46 PM EST
Civil Twilight 6:53 AM EST 6:14 PM EST
Nautical Twilight 6:22 AM EST 6:46 PM EST
Astronomical Twilight 5:50 AM EST 7:17 PM EST
Moon 7:14 PM EST (2/7) 8:27 AM EST (2/7)
Length of Visible Light 11h 20m
Length of Day
10h 24m
Full, 98% of the Moon is Illuminated
Feb 7
Full
Feb 13
Last Quarter
Feb 20
New
Feb 27
First Quarter
Mar 6
Full

Hourly Weather History & Observations

Time (EST) Temp. Windchill Dew Point Humidity Pressure Visibility Wind Dir Wind Speed Gust Speed Precip Events Conditions
12:53 AM 37.9 °F 34.4 °F 37.9 °F 100% 29.73 in 6.0 mi Variable 4.6 mph - 0.00 in   Overcast
1:06 AM 37.4 °F 33.8 °F 37.4 °F 100% 29.72 in 7.0 mi Variable 4.6 mph - 0.00 in Rain Light Rain
1:20 AM 37.4 °F 32.1 °F 37.4 °F 100% 29.72 in 6.0 mi Variable 6.9 mph - 0.00 in   Overcast
1:53 AM 36.0 °F 29.6 °F 36.0 °F 100% 29.74 in 6.0 mi WNW 8.1 mph - 0.00 in Rain Light Rain
2:13 AM 35.6 °F 30.7 °F 35.6 °F 100% 29.72 in 5.0 mi WNW 5.8 mph - 0.00 in Rain Light Rain
2:53 AM 35.1 °F 29.3 °F 34.0 °F 96% 29.76 in 7.0 mi West 6.9 mph - 0.00 in Rain Light Rain
3:01 AM 35.6 °F 28.6 °F 33.8 °F 93% 29.75 in 6.0 mi West 9.2 mph - 0.00 in Rain Light Rain
3:17 AM 33.8 °F 27.0 °F 33.8 °F 100% 29.75 in 5.0 mi West 8.1 mph - 0.01 in Rain Light Rain
3:53 AM 34.0 °F 27.2 °F 33.1 °F 96% 29.76 in 10.0 mi SW 8.1 mph - 0.01 in   Overcast
4:00 AM 33.8 °F 27.7 °F 32.0 °F 93% 29.75 in 10.0 mi SW 6.9 mph - N/A   Overcast
4:13 AM 33.8 °F 26.4 °F 32.0 °F 93% 29.75 in 10.0 mi SW 9.2 mph - N/A   Overcast
4:39 AM 33.8 °F 27.7 °F 32.0 °F 93% 29.77 in 9.0 mi WSW 6.9 mph 17.3 mph 0.00 in   Overcast
4:53 AM 33.1 °F 25.5 °F 30.9 °F 92% 29.79 in 10.0 mi WSW 9.2 mph - 0.00 in   Overcast
5:53 AM 33.1 °F 26.1 °F 28.0 °F 82% 29.80 in 10.0 mi WSW 8.1 mph - 0.01 in   Overcast
6:53 AM 32.0 °F 26.4 °F 27.0 °F 82% 29.83 in 7.0 mi West 5.8 mph - 0.00 in   Overcast
7:53 AM 30.0 °F 22.4 °F 23.0 °F 75% 29.86 in 8.0 mi West 8.1 mph 20.7 mph 0.01 in Snow Light Snow
8:09 AM 30.2 °F 21.3 °F 21.2 °F 69% 29.85 in 6.0 mi West 10.4 mph 17.3 mph 0.00 in Snow Light Snow
8:53 AM 28.9 °F 19.8 °F 23.0 °F 78% 29.89 in 4.0 mi WSW 10.4 mph - 0.00 in Snow Light Snow
9:07 AM 28.4 °F 21.2 °F 23.0 °F 80% 29.86 in 2.5 mi Variable 6.9 mph - 0.00 in Snow Light Snow
9:18 AM 28.4 °F 22.2 °F 24.8 °F 86% 29.87 in 2.0 mi Variable 5.8 mph - 0.00 in Snow Light Snow
9:26 AM 28.4 °F 22.2 °F 24.8 °F 86% 29.87 in 1.8 mi West 5.8 mph - 0.00 in Snow Light Snow
9:53 AM 28.0 °F 20.8 °F 25.0 °F 88% 29.91 in 1.0 mi Variable 6.9 mph - 0.00 in Snow Light Snow
10:10 AM 28.4 °F 21.2 °F 24.8 °F 86% 29.88 in 1.0 mi Variable 6.9 mph 16.1 mph 0.00 in Snow Light Snow
10:23 AM 28.4 °F 22.2 °F 24.8 °F 86% 29.89 in 0.8 mi West 5.8 mph - 0.00 in Snow Light Snow
10:53 AM 28.0 °F 21.7 °F 25.0 °F 88% 29.92 in 0.8 mi Variable 5.8 mph - 0.00 in Snow Light Snow
11:04 AM 28.4 °F 22.2 °F 24.8 °F 86% 29.89 in 1.0 mi West 5.8 mph - 0.00 in Snow Light Snow
11:08 AM 28.4 °F 23.3 °F 24.8 °F 86% 29.89 in 0.8 mi WSW 4.6 mph - 0.00 in Snow Light Snow
11:18 AM 28.4 °F 21.2 °F 26.6 °F 93% 29.89 in 1.0 mi Variable 6.9 mph - 0.00 in Snow Light Snow
11:25 AM 28.4 °F 19.7 °F 24.8 °F 86% 29.89 in 3.0 mi West 9.2 mph - 0.00 in Snow Light Snow
11:36 AM 28.4 °F 20.4 °F 21.2 °F 74% 29.89 in 9.0 mi West 8.1 mph - 0.00 in Snow Light Snow
11:53 AM 30.0 °F 21.7 °F 21.9 °F 72% 29.92 in 9.0 mi WSW 9.2 mph - 0.00 in Snow Light Snow
12:11 PM 28.4 °F 20.4 °F 24.8 °F 86% 29.88 in 3.0 mi West 8.1 mph - 0.00 in Snow Light Snow
12:21 PM 28.4 °F 20.4 °F 23.0 °F 80% 29.88 in 6.0 mi WSW 8.1 mph - 0.00 in Snow Light Snow
12:53 PM 28.9 °F 21.1 °F 24.1 °F 82% 29.91 in 6.0 mi SW 8.1 mph - 0.00 in Snow Light Snow
1:35 PM 28.4 °F 19.1 °F 23.0 °F 80% 29.87 in 1.8 mi West 10.4 mph - 0.00 in Snow Light Snow
1:45 PM 28.4 °F 19.7 °F 23.0 °F 80% 29.88 in 3.0 mi WNW 9.2 mph 17.3 mph 0.00 in Snow Light Snow
1:53 PM 28.9 °F 19.8 °F 21.9 °F 75% 29.91 in 5.0 mi West 10.4 mph - 0.00 in Snow Light Snow
2:14 PM 28.4 °F 20.4 °F 24.8 °F 86% 29.88 in 2.0 mi WNW 8.1 mph - 0.00 in Snow Light Snow
2:25 PM 30.2 °F 23.4 °F 23.0 °F 75% 29.88 in 4.0 mi Variable 6.9 mph - 0.00 in Snow Light Snow
2:38 PM 28.4 °F 21.2 °F 23.0 °F 80% 29.89 in 2.5 mi Variable 6.9 mph - 0.00 in Snow Light Snow
2:53 PM 28.9 °F 21.9 °F 24.1 °F 82% 29.93 in 2.0 mi Variable 6.9 mph - 0.00 in Snow Light Snow
3:09 PM 28.4 °F 19.1 °F 24.8 °F 86% 29.89 in 6.0 mi SW 10.4 mph - 0.01 in Snow Light Snow
3:40 PM 28.4 °F 23.3 °F 24.8 °F 86% 29.90 in 7.0 mi Variable 4.6 mph - 0.01 in Snow Light Snow
3:53 PM 28.9 °F 22.8 °F 23.0 °F 78% 29.94 in 8.0 mi Variable 5.8 mph - 0.01 in Snow Light Snow
4:18 PM 28.4 °F 21.2 °F 23.0 °F 80% 29.92 in 7.0 mi West 6.9 mph - 0.00 in Snow Light Snow
4:53 PM 28.9 °F 21.9 °F 21.9 °F 75% 29.97 in 5.0 mi Variable 6.9 mph - 0.00 in Snow Light Snow
5:11 PM 28.4 °F 22.2 °F 24.8 °F 86% 29.94 in 2.0 mi Variable 5.8 mph - 0.00 in Snow Light Snow
5:20 PM 28.4 °F 22.2 °F 24.8 °F 86% 29.95 in 1.0 mi West 5.8 mph - 0.00 in Snow Light Snow
5:25 PM 28.4 °F 22.2 °F 24.8 °F 86% 29.95 in 0.8 mi West 5.8 mph - 0.00 in Snow Light Snow
5:53 PM 28.0 °F 19.3 °F 25.0 °F 88% 30.00 in 2.5 mi West 9.2 mph - 0.00 in Snow Light Snow
6:06 PM 28.4 °F 22.2 °F 24.8 °F 86% 29.97 in 1.5 mi Variable 5.8 mph - 0.00 in Snow Light Snow
6:18 PM 26.6 °F 19.1 °F 24.8 °F 93% 29.98 in 2.5 mi WNW 6.9 mph - 0.00 in Snow Light Snow
6:37 PM 26.6 °F 17.5 °F 21.2 °F 80% 30.00 in 3.0 mi NW 9.2 mph - 0.00 in Snow Light Snow
6:53 PM 27.0 °F 18.7 °F 21.0 °F 78% 30.05 in 6.0 mi NW 8.1 mph - 0.00 in Snow Light Snow
7:53 PM 26.1 °F 18.4 °F 19.0 °F 75% 30.09 in 9.0 mi Variable 6.9 mph - 0.00 in Snow Light Snow
8:53 PM 26.1 °F 18.4 °F 18.0 °F 71% 30.12 in 10.0 mi Variable 6.9 mph - 0.00 in   Overcast
9:53 PM 25.0 °F 17.1 °F 18.0 °F 75% 30.16 in 10.0 mi NW 6.9 mph - N/A   Overcast
10:41 PM 24.8 °F 16.9 °F 19.4 °F 80% 30.13 in 2.5 mi NW 6.9 mph - 0.00 in Snow Light Snow
10:53 PM 24.1 °F 18.2 °F 19.9 °F 84% 30.19 in 2.5 mi WNW 4.6 mph - 0.00 in Snow Light Snow
10:56 PM 24.8 °F 20.5 °F 19.4 °F 80% 30.14 in 4.0 mi NW 3.5 mph - 0.00 in Snow Light Snow
11:33 PM 24.8 °F 20.5 °F 19.4 °F 80% 30.15 in 3.0 mi Variable 3.5 mph - 0.00 in Snow Light Snow
11:53 PM 24.1 °F 19.7 °F 19.9 °F 84% 30.21 in 2.5 mi Variable 3.5 mph - 0.00 in Snow Light Snow